Location: Dodgeville
(42.9600°N, 90.1300°W)
Time: 01:26:23
(UTC-05:00)

Uosat F - Visible Passes

Search period start: 23 March 2017 00:00
Search period end: 02 April 2017 00:00
Orbit: 751 x 761 km, 98.8° (Epoch: 21 March)

Date Brightness Start Highest point End Pass type
(mag) Time Alt. Az. Time Alt. Az. Time Alt. Az.
24 Mar 14.4 20:23:27 10° WSW 20:25:18 12° W 20:27:08 10° WNW visible
25 Mar 13.5 19:41:06 10° SSW 19:45:25 28° W 19:49:45 10° NW visible
27 Mar 14.0 20:01:56 10° SW 20:05:26 19° W 20:08:57 10° NW visible
29 Mar 14.4 20:23:35 10° WSW 20:25:29 12° W 20:27:24 10° WNW visible
01 Apr 14.0 20:02:05 10° SW 20:05:37 19° W 20:09:09 10° NW visible
